User: anonymous   Login
Location: Caltech
(34.1382°N, 118.1253°W)
Time: 03:19:32
(UTC-07:00)
Language:

Meteor 1-11 Rocket - Orbit

View from above orbital plane
View from above orbital plane
View from above satellite
View from above satellite

Ground track
Ground track

The orbit data is extracted from the following two-line orbital elements,

1 05918U 72022B   14296.76423520  .00000084  00000-0  43293-4 0  2830
2 05918 081.2379 181.6862 0059166 163.9938 274.0795 14.05726261182079
Epoch (UTC): 23 October 2014 18:20:29
Eccentricity: 0.0059166
inclination: 81.2379°
perigee height: 831 km
apogee height: 917 km
right ascension of ascending node: 181.6862°
argument of perigee: 163.9938°
revolutions per day: 14.05726261
mean anomaly at epoch: 274.0795°
orbit number at epoch: 18207

The dashed part of the orbit path shows where the satellite is in the earth's shadow,  

DLR